COSMOS 886 DEB, 9816

Orbit data source: Space-Track

COSMOS 886 DEB, 9816 is space debris in LEO originally from a launch on Mon, 27 Dec 1976 UTC launched from the Tyuratam Missile And Space Complex (TTMTR). Debris objects in space refer to the collection of defunct objects orbiting the Earth. Examples of debris include non-operational satellites, rocket bodies, and fragments generated from explosions, collisions, or faulty payload assembly.

Loading next visibility...
Identifier
9816, 1976-126AC
Orbit
LEO
Country
Flag of CISCIS
Related business
Manufacturer
Unknown
Mission
Spacecraft
Bus & Motor
Unknown
Mass
Unknown
Launch date (UTC)
1976-12-27 (49 years ago)
Launch vehicle
Unknown
Launch site
Tyuratam Missile And Space Complex (TTMTR)
Object type
Payload
Rocket body
Debris
Shape & HBR
Unknown shape, 0.1 m
Radar Cross Section
Small (<0.1 m²)

Expand to show TLE details & history
Last TLE update: 12 hours ago

TLE from 12 hours ago
0 COSMOS 886 DEB
1  9816U 76126AC  26130.11900301  .00005238  00000-0  10160-2 0  9991
2  9816  65.7951  38.9703 0568208  47.5567 317.2128 13.94100925401937
Epoch: 2026-05-10T02:51Z
TLE epoch observation values (Epoch: 2026-05-10T02:51:21.860Z)
Latitude
-0.00004°
Longitude
128.20254°
Altitude
623.737 km
Speed
7.697 km/s
True Right ascension
02h 35m 52s
True Declination
0° 00' 00"
Sunlit
Object was in daylight at epoch
Visualization orbit readout
Latitude
Unknown
Longitude
Unknown
Altitude
Unknown
Speed
Unknown
Apparent Right ascension
Unknown
Apparent Declination
Unknown
Sunlit
N/A
Visualization observer readout
Local Sidereal Time
23:30:32
Azimuth
Unknown
Elevation
Unknown
Doppler factor
Unknown
Orbital elements
Apogee altitude
1,327.072 km
Perigee altitude
498.519 km
Semi-major axis
7,290.932 km
Eccentricity
0.05682
Inclination
65.7951°
RAAN
38.9703°
Arg. of periapsis
47.5567°
True anomaly
312.55243°
Mean anomaly
317.2128°
Eccentric anomaly
314.90702°
Mean motion
3.48633 °/min
Orbital period
103.26 mins
BSTAR
0.001016
Loading maneuver chart data...
Computing Atmospheric mass density...
Loading historical data...
Loading historical data...
Loading historical data...
Loading historical data...
Loading historical data...
Loading historical data...
Loading historical data...

Documentation

Showing up to 5 results
|